This is the latest recevied weather packets stored in our database for station/object JF2ZGN-13. If no packets are shown the sender has not sent any weather packets the latest 10 day(s).
| Time | Temp. | Humidity | Pressure | Rain* | Wind** | Luminosity | Snow |
|---|---|---|---|---|---|---|---|
| 1777767250 | 17.78° C | 35% | 907.1 hPa | 0 mm | - | - | - |
| 1777766649 | 17.78° C | 29% | 907.1 hPa | 0 mm | - | - | - |
| 1777766049 | 18.33° C | 32% | 907.1 hPa | 0 mm | - | - | - |
| 1777765448 | 17.78° C | 30% | 907.1 hPa | 0 mm | - | - | - |
| 1777764247 | 16.67° C | 32% | 906.7 hPa | 0 mm | - | - | - |
| 1777763647 | 16.11° C | 37% | 906.7 hPa | 0 mm | - | - | - |
| 1777763047 | 15.56° C | 37% | 906.6 hPa | 0 mm | - | - | - |
| 1777762446 | 15° C | 36% | 906.6 hPa | 0 mm | - | - | - |
| 1777761845 | 15° C | 37% | 906.6 hPa | 0 mm | - | - | - |
| 1777761244 | 14.44° C | 36% | 906.6 hPa | 0 mm | - | - | - |
| 1777760644 | 15° C | 38% | 906.6 hPa | 0 mm | - | - | - |
| 1777760044 | 15° C | 33% | 906.5 hPa | 0 mm | - | - | - |
| 1777759443 | 15° C | 34% | 906.4 hPa | 0 mm | - | - | - |
| 1777758843 | 14.44° C | 32% | 906.4 hPa | 0 mm | - | - | - |
| 1777758243 | 14.44° C | 30% | 906.3 hPa | 0 mm | - | - | - |
| 1777757642 | 14.44° C | 30% | 906.3 hPa | 0 mm | - | - | - |
| 1777757041 | 14.44° C | 31% | 906.4 hPa | 0 mm | - | - | - |
| 1777756441 | 14.44° C | 30% | 906.3 hPa | 0 mm | - | - | - |
| 1777755840 | 14.44° C | 34% | 906.3 hPa | 0 mm | - | - | - |
| 1777755240 | 13.89° C | 34% | 906.2 hPa | 0 mm | - | - | - |
| 1777754640 | 13.89° C | 35% | 905.9 hPa | 0 mm | - | - | - |
| 1777754039 | 13.89° C | 36% | 905.9 hPa | 0 mm | - | - | - |
| 1777753439 | 13.89° C | 36% | 905.7 hPa | 0 mm | - | - | - |
| 1777752839 | 13.89° C | 36% | 905.9 hPa | 0 mm | - | - | - |
| 1777752239 | 13.89° C | 36% | 905.9 hPa | 0 mm | - | - | - |
* Rain since midnight (hover to see other rain measurements)
** Current wind speed in m/s (hover to see current wind gust speed)